| time (UTC) | temp F | wind direction | speed knots | gust knots | rain 1hr in | rain 24hr in | rain mn in | humidity % | barometer mb |
| 20260904170031 | 52 | 253 | 0.0 | 0.0 | 0.00 | 0.51 | 0.05 | 87 | 1015.3 |
| 20260904164534 | 51 | 253 | 0.0 | 0.0 | 0.00 | 0.51 | 0.05 | 90 | 1015.3 |
| 20260904163020 | 51 | 257 | 0.0 | 0.9 | 0.00 | 0.51 | 0.05 | 90 | 1015.2 |
| 20260904161522 | 50 | 219 | 0.0 | 0.0 | 0.00 | 0.51 | 0.05 | 95 | 1015.2 |
| 20260904160027 | 49 | 219 | 0.0 | 0.0 | 0.00 | 0.51 | 0.05 | 96 | 1015.1 |
| 20260904154531 | 48 | 219 | 0.0 | 0.0 | 0.00 | 0.51 | 0.05 | 96 | 1014.9 |
| 20260904153043 | 47 | 135 | 0.0 | 0.0 | 0.00 | 0.51 | 0.05 | 96 | 1014.7 |
| 20260904151517 | 46 | 135 | 0.0 | 0.0 | 0.00 | 0.51 | 0.05 | 95 | 1014.6 |
| 20260904150026 | 46 | 135 | 0.0 | 0.0 | 0.00 | 0.51 | 0.05 | 95 | 1014.4 |
| 20260904144532 | 46 | 135 | 0.0 | 0.9 | 0.00 | 0.51 | 0.05 | 96 | 1014.1 |
| 20260904143036 | 46 | 87 | 0.0 | 0.0 | 0.00 | 0.51 | 0.05 | 95 | 1014.2 |
| 20260904141535 | 46 | 87 | 0.0 | 0.0 | 0.00 | 0.51 | 0.05 | 95 | 1014.2 |
| 20260904140019 | 46 | 87 | 0.0 | 0.0 | 0.01 | 0.51 | 0.05 | 95 | 1013.9 |
| 20260904134530 | 46 | 87 | 0.0 | 0.0 | 0.01 | 0.51 | 0.05 | 95 | 1013.9 |
| 20260904133031 | 46 | 87 | 0.0 | 0.0 | 0.01 | 0.52 | 0.05 | 95 | 1013.8 |
| 20260904131512 | 46 | 87 | 0.0 | 0.0 | 0.01 | 0.52 | 0.05 | 95 | 1013.4 |
| 20260904130036 | 46 | 87 | 0.0 | 0.0 | 0.00 | 0.52 | 0.04 | 95 | 1013.1 |
| 20260904124525 | 47 | 87 | 0.0 | 0.0 | 0.00 | 0.52 | 0.04 | 95 | 1012.9 |
| 20260904123012 | 47 | 87 | 0.0 | 0.0 | 0.00 | 0.52 | 0.04 | 95 | 1012.7 |
| 20260904121505 | 47 | 87 | 0.0 | 0.0 | 0.00 | 0.52 | 0.04 | 95 | 1012.7 |
| 20260904120013 | 47 | 87 | 0.0 | 0.0 | 0.00 | 0.52 | 0.04 | 95 | 1012.5 |
| 20260904114516 | 47 | 87 | 0.0 | 0.0 | 0.00 | 0.52 | 0.04 | 95 | 1012.3 |
| 20260904113023 | 47 | 87 | 0.0 | 0.0 | 0.00 | 0.52 | 0.04 | 95 | 1012.1 |
| 20260904111505 | 47 | 87 | 0.0 | 0.0 | 0.00 | 0.52 | 0.04 | 95 | 1012.1 |
| 20260904110010 | 47 | 87 | 0.0 | 0.0 | 0.00 | 0.52 | 0.04 | 95 | 1012.1 |
| 20260904104522 | 47 | 87 | 0.0 | 0.0 | 0.00 | 0.54 | 0.04 | 95 | 1011.8 |
| 20260904103021 | 47 | 87 | 0.0 | 0.0 | 0.00 | 0.55 | 0.04 | 95 | 1011.9 |
| 20260904101530 | 47 | 87 | 0.0 | 0.0 | 0.00 | 0.58 | 0.04 | 95 | 1011.9 |
| 20260904100008 | 47 | 87 | 0.0 | 0.0 | 0.00 | 0.60 | 0.04 | 95 | 1011.7 |
| 20260904094512 | 47 | 87 | 0.0 | 0.0 | 0.01 | 0.62 | 0.04 | 95 | 1011.7 |
| 20260904093024 | 47 | 87 | 0.0 | 0.0 | 0.02 | 0.65 | 0.04 | 95 | 1011.7 |
| 20260904091523 | 47 | 87 | 0.0 | 0.0 | 0.02 | 0.68 | 0.04 | 95 | 1011.5 |
| 20260904090033 | 47 | 87 | 0.0 | 0.0 | 0.03 | 0.69 | 0.04 | 94 | 1011.6 |
| 20260904084530 | 47 | 87 | 0.0 | 0.0 | 0.02 | 0.68 | 0.03 | 94 | 1011.3 |
| 20260904083013 | 47 | 87 | 0.0 | 0.0 | 0.01 | 0.68 | 0.02 | 94 | 1011.5 |
| 20260904081518 | 47 | 87 | 0.0 | 0.0 | 0.01 | 0.69 | 0.02 | 95 | 1011.6 |
| 20260904080025 | 47 | 87 | 0.0 | 0.0 | 0.01 | 0.69 | 0.01 | 94 | 1011.4 |
| 20260904074530 | 47 | 87 | 0.0 | 0.0 | 0.01 | 0.70 | 0.01 | 94 | 1011.4 |
| 20260904073030 | 47 | 87 | 0.0 | 0.0 | 0.01 | 0.72 | 0.01 | 94 | 1011.3 |
| 20260904071520 | 47 | 87 | 0.0 | 0.0 | 0.02 | 0.73 | 0.01 | 94 | 1011.0 |
| 20260904070020 | 47 | 87 | 0.0 | 0.0 | 0.03 | 0.73 | 0.00 | 94 | 1010.5 |
| 20260904064527 | 47 | 87 | 0.0 | 0.0 | 0.05 | 0.73 | 0.73 | 94 | 1011.1 |
| 20260904063032 | 47 | 87 | 0.0 | 0.0 | 0.10 | 0.74 | 0.73 | 94 | 1011.1 |
| 20260904061534 | 47 | 87 | 0.0 | 0.0 | 0.15 | 0.73 | 0.72 | 94 | 1010.9 |
| 20260904060021 | 47 | 87 | 0.0 | 0.0 | 0.14 | 0.71 | 0.70 | 93 | 1011.0 |
| 20260904054513 | 47 | 87 | 0.0 | 0.0 | 0.15 | 0.69 | 0.68 | 93 | 1011.3 |
| 20260904053005 | 48 | 87 | 0.0 | 0.0 | 0.13 | 0.64 | 0.63 | 93 | 1011.3 |
| 20260904051509 | 48 | 123 | 0.0 | 0.0 | 0.09 | 0.58 | 0.57 | 93 | 1011.5 |
| 20260904050017 | 48 | 123 | 0.0 | 0.0 | 0.10 | 0.57 | 0.56 | 92 | 1011.3 |
| 20260904044527 | 48 | 123 | 0.0 | 0.0 | 0.09 | 0.54 | 0.52 | 92 | 1011.4 |
| 20260904043004 | 48 | 123 | 0.0 | 0.0 | 0.09 | 0.51 | 0.50 | 91 | 1011.4 |
| 20260904041506 | 48 | 124 | 0.0 | 0.0 | 0.09 | 0.49 | 0.48 | 91 | 1011.3 |
| 20260904040010 | 49 | 124 | 0.0 | 0.0 | 0.10 | 0.47 | 0.46 | 91 | 1011.4 |
| 20260904034516 | 49 | 124 | 0.0 | 0.0 | 0.12 | 0.45 | 0.44 | 90 | 1011.2 |
| 20260904033022 | 49 | 124 | 0.0 | 0.0 | 0.11 | 0.42 | 0.41 | 90 | 1011.0 |
| 20260904031503 | 50 | 128 | 0.0 | 0.0 | 0.10 | 0.40 | 0.39 | 89 | 1011.0 |
| 20260904030015 | 50 | 137 | 0.0 | 0.0 | 0.08 | 0.37 | 0.36 | 86 | 1010.9 |
| 20260904024511 | 51 | 165 | 0.0 | 0.0 | 0.05 | 0.33 | 0.32 | 84 | 1010.8 |
| 20260904023017 | 53 | 165 | 0.0 | 0.0 | 0.03 | 0.31 | 0.30 | 81 | 1010.6 |
| 20260904021525 | 54 | 165 | 0.0 | 0.0 | 0.02 | 0.30 | 0.29 | 78 | 1010.3 |
| 20260904020004 | 56 | 213 | 0.0 | 0.0 | 0.01 | 0.31 | 0.28 | 76 | 1010.1 |
| 20260904014508 | 56 | 213 | 0.0 | 0.0 | 0.00 | 0.33 | 0.27 | 76 | 1010.0 |
| 20260904013017 | 57 | 213 | 0.0 | 0.0 | 0.00 | 0.33 | 0.27 | 73 | 1010.2 |
| 20260904011527 | 57 | 214 | 0.0 | 0.0 | 0.00 | 0.33 | 0.27 | 74 | 1010.3 |
| 20260904010025 | 58 | 214 | 0.0 | 0.0 | 0.00 | 0.33 | 0.27 | 73 | 1010.3 |
| 20260904004506 | 58 | 213 | 0.0 | 0.0 | 0.00 | 0.33 | 0.27 | 71 | 1010.5 |
| 20260904003012 | 58 | 214 | 0.0 | 0.0 | 0.00 | 0.33 | 0.27 | 69 | 1010.6 |
| 20260904001516 | 59 | 214 | 0.0 | 0.0 | 0.00 | 0.33 | 0.27 | 68 | 1010.6 |
| 20260904000023 | 59 | 264 | 0.0 | 0.0 | 0.00 | 0.33 | 0.27 | 65 | 1010.7 |
| 20260903234530 | 60 | 264 | 0.0 | 0.0 | 0.00 | 0.33 | 0.27 | 67 | 1010.8 |
| 20260903233041 | 60 | 183 | 0.0 | 0.0 | 0.00 | 0.33 | 0.27 | 66 | 1011.0 |
| 20260903231513 | 61 | 183 | 0.0 | 0.9 | 0.00 | 0.33 | 0.27 | 67 | 1011.2 |
| 20260903230016 | 61 | 308 | 0.0 | 0.9 | 0.00 | 0.33 | 0.27 | 63 | 1011.1 |
| 20260903224529 | 61 | 264 | 0.0 | 1.7 | 0.00 | 0.33 | 0.27 | 65 | 1011.3 |
| 20260903223031 | 61 | 116 | 0.0 | 0.0 | 0.00 | 0.33 | 0.27 | 65 | 1011.5 |
| 20260903221531 | 61 | 116 | 0.0 | 0.0 | 0.00 | 0.33 | 0.27 | 66 | 1011.6 |
| 20260903220017 | 61 | 116 | 0.0 | 0.0 | 0.00 | 0.33 | 0.27 | 65 | 1011.8 |
| 20260903214529 | 61 | 108 | 0.0 | 1.7 | 0.00 | 0.33 | 0.27 | 68 | 1011.8 |
| 20260903213025 | 62 | 179 | 0.0 | 0.0 | 0.00 | 0.33 | 0.27 | 64 | 1012.0 |
| 20260903211535 | 62 | 240 | 0.0 | 1.7 | 0.00 | 0.33 | 0.27 | 68 | 1012.2 |
| 20260903210043 | 61 | 160 | 0.0 | 0.9 | 0.00 | 0.33 | 0.27 | 65 | 1012.2 |
| 20260903204518 | 61 | 147 | 0.0 | 0.0 | 0.00 | 0.33 | 0.27 | 62 | 1012.2 |
| 20260903203027 | 59 | 97 | 0.0 | 0.0 | 0.00 | 0.33 | 0.27 | 69 | 1012.4 |
| 20260903201526 | 58 | 102 | 0.0 | 0.0 | 0.00 | 0.33 | 0.27 | 73 | 1012.5 |
| 20260903200029 | 58 | 102 | 0.0 | 0.0 | 0.00 | 0.33 | 0.27 | 70 | 1012.6 |
| 20260903194532 | 58 | 102 | 0.0 | 0.9 | 0.00 | 0.33 | 0.27 | 71 | 1012.7 |
| 20260903193012 | 56 | 245 | 0.0 | 0.9 | 0.00 | 0.33 | 0.27 | 76 | 1013.0 |
| 20260903191505 | 57 | 243 | 0.0 | 0.0 | 0.00 | 0.33 | 0.27 | 77 | 1013.1 |
| 20260903190006 | 57 | 248 | 0.0 | 0.0 | 0.00 | 0.33 | 0.27 | 73 | 1013.2 |
| 20260903184508 | 57 | 248 | 0.0 | 0.0 | 0.00 | 0.33 | 0.27 | 75 | 1013.3 |
| 20260903183012 | 56 | 247 | 0.0 | 0.0 | 0.00 | 0.33 | 0.27 | 79 | 1013.3 |
| 20260903181515 | 56 | 247 | 0.0 | 0.0 | 0.00 | 0.33 | 0.27 | 75 | 1013.3 |
| 20260903180004 | 55 | 246 | 0.0 | 0.0 | 0.00 | 0.33 | 0.27 | 80 | 1013.3 |
| 20260903174505 | 54 | 250 | 0.0 | 1.7 | 0.00 | 0.33 | 0.27 | 80 | 1013.3 |
| 20260903173017 | 53 | 271 | 0.0 | 0.0 | 0.00 | 0.33 | 0.27 | 74 | 1013.3 |
| 20260903171516 | 53 | 323 | 0.0 | 0.0 | 0.00 | 0.33 | 0.27 | 77 | 1013.3 |